Regional Weather Roundup
Issued by NWS

Home | Current Version | Previous Version | Text Only | Print | Product List | Glossary Off
Versions: 1 2 3 4 5 6 7 8 9 10 11 12 13 14 15 16 17 18 19 20 21 22 23 24 25 26 27 28 29 30 31 32 33 34 35 36 37 38 39 40 41 42 43 44 45 46 47 48 49 50

000
ASUS45 KCYS 260110
RWRWY

WYOMING REGIONAL WEATHER ROUNDUP
NATIONAL WEATHER SERVICE CHEYENNE WY
700 PM MDT FRI JUL 25 2014

NOTE:  "FAIR" INDICATES FEW OR NO CLOUDS BELOW 12,000 FEET
WITH NO SIGNIFICANT WEATHER AND/OR OBSTRUCTIONS TO VISIBILITY.

WYZ001-260200-
YELLOWSTONE NATIONAL PARK

CITY           SKY/WX    TMP DP  RH WIND       PRES   REMARKS
LK YELLOWSTONE   N/A     68  16  13 VRB6      30.25S
W YELLOWSTONE  NOT AVBL

$$
WYZ002>013-054>058-071-098>099-260200-
NORTHERN WYOMING

CITY           SKY/WX    TMP DP  RH WIND       PRES   REMARKS
JACKSON        NOT AVBL
CODY           NOT AVBL
GREYBULL       SUNNY     94  14   5 NW21G29   29.83S
WORLAND        MOSUNNY   90  37  15 N7        29.85S
SHERIDAN       SUNNY     86  48  26 N7        29.88R
BUFFALO        SUNNY     85  44  23 N12       29.94R
GILLETTE       SUNNY     86  44  23 NE20      29.87R
HULETT         FAIR      79  50  36 MISG      29.92
NEWCASTLE      FAIR      84  41  21 MISG      29.87

$$
WYZ014>020-022>026-101>103-260200-
CENTRAL WYOMING

CITY           SKY/WX    TMP DP  RH WIND       PRES   REMARKS
BIG PINEY      SUNNY     81  26  13 NW15      30.17S
PINEDALE       CLEAR     77  30  18 NW20G26   30.19R
DUBOIS         FAIR      75  21  13 NW18G33   30.14S
LANDER         SUNNY     90  24   9 W10G22    29.96S
RIVERTON       MOSUNNY   90  23   9 W28G36    29.96S
CASPER         SUNNY     92  24   8 W15G22    29.93S
DOUGLAS        MOSUNNY   92  44  19 CALM      29.91S

$$
WYZ021-027>030-104>119-260200-
SOUTHERN WYOMING

CITY           SKY/WX    TMP DP  RH WIND       PRES   REMARKS
EVANSTON       SUNNY     82  34  17 W12G22    30.18F
KEMMERER       CLEAR     79  23  12 W23G31    30.20S
FORT BRIDGER   FAIR      84  28  13 W20G29    30.20S
ROCK SPRINGS   SUNNY     86  25  11 W23G36    30.11F
DIXON          FAIR      77  44  31 S22G39    30.15R
RAWLINS        SUNNY     85  30  13 SW15G21   30.11F
SARATOGA       FAIR      77  46  33 S14G21    30.17S
LARAMIE        CLOUDY    73  45  36 SW13      30.20F
CHEYENNE       CLOUDY    79  48  33 S15G23    30.13R
TORRINGTON     PTSUNNY   75  60  59 SE16      29.92F
PINE BLUFFS    RAIN      70  57  64 W3G20     30.11R

$$



USA.gov is the U.S. government's official web portal to all federal, state and local government web resources and services.